This is the latest recevied weather packets stored in our database for station/object K5OBH. If no packets are shown the sender has not sent any weather packets the latest 10 day(s).
| Time | Temp. | Humidity | Pressure | Rain* | Wind** | Luminosity | Snow |
|---|---|---|---|---|---|---|---|
| 1777984520 | 20.56° C | 84% | 1001.1 hPa | 0 mm | - | 48 W/m² | - |
| 1777984216 | 20.56° C | 84% | 1000.7 hPa | 0 mm | - | 39 W/m² | - |
| 1777983913 | 20.56° C | 84% | 1000.7 hPa | 0 mm | - | 30 W/m² | - |
| 1777983610 | 20.56° C | 83% | 1000.3 hPa | 0 mm | - | 30 W/m² | - |
| 1777983306 | 20.56° C | 84% | 1000.5 hPa | 0 mm | - | 23 W/m² | - |
| 1777983003 | 20° C | 84% | 1000.3 hPa | 0 mm | - | 20 W/m² | - |
| 1777982699 | 20.56° C | 84% | 1000.2 hPa | 0 mm | - | 15 W/m² | - |
| 1777982398 | 20° C | 84% | 1000 hPa | 0 mm | - | 12 W/m² | - |
| 1777982095 | 20.56° C | 84% | 1000.3 hPa | 0 mm | - | 8 W/m² | - |
| 1777981793 | 20.56° C | 84% | 1000 hPa | 0 mm | - | 5 W/m² | - |
| 1777981489 | 20.56° C | 83% | 999.8 hPa | 0 mm | - | 4 W/m² | - |
| 1777981186 | 20.56° C | 84% | 999.9 hPa | 0 mm | - | 2 W/m² | - |
| 1777980882 | 20.56° C | 83% | 999.8 hPa | 0 mm | - | 1 W/m² | - |
| 1777980577 | 20.56° C | 83% | 999.4 hPa | 0 mm | - | 1 W/m² | - |
| 1777980275 | 20.56° C | 82% | 999.6 hPa | 0 mm | - | 0 W/m² | - |
| 1777979972 | 20.56° C | 82% | 999.5 hPa | 0 mm | - | 0 W/m² | - |
| 1777979666 | 20.56° C | 82% | 999.5 hPa | 0 mm | - | 0 W/m² | - |
| 1777979363 | 20.56° C | 82% | 999.5 hPa | 0 mm | - | 0 W/m² | - |
| 1777979060 | 20.56° C | 82% | 999.3 hPa | 0 mm | - | 0 W/m² | - |
| 1777978756 | 21.11° C | 81% | 999.6 hPa | 0 mm | - | 0 W/m² | - |
| 1777978453 | 21.11° C | 82% | 999.5 hPa | 0 mm | - | 0 W/m² | - |
| 1777978149 | 21.11° C | 82% | 999.3 hPa | 0 mm | - | 0 W/m² | - |
| 1777977847 | 21.11° C | 81% | 999.5 hPa | 0 mm | - | 0 W/m² | - |
| 1777977542 | 21.11° C | 81% | 999.2 hPa | 0 mm | - | 0 W/m² | - |
| 1777977241 | 21.11° C | 81% | 999.2 hPa | 0 mm | - | 0 W/m² | - |
* Rain latest hour (hover to see other rain measurements)
** Current wind speed in m/s (hover to see current wind gust speed)